Change the Weather History Date:

Tuesday, October 9, 2012

  Actual Average Record
Temperature  
Mean Temperature 48 °F 57 °F  
Max Temperature 61 °F 67 °F 85 °F (2010)
Min Temperature 34 °F 47 °F 32 °F (2000)
Degree Days  
Heating Degree Days 17 9  
Month to date heating degree days 107 66  
Since 1 July heating degree days 208 127  
Moisture  
Dew Point 36 °F    
Average Humidity 71    
Maximum Humidity 100    
Minimum Humidity 42    
Precipitation  
Precipitation 0.00 in 0.11 in 0.75 in (1993)
Month to date precipitation 1.95 0.94  
Year to date precipitation 31.21 31.84  
Sea Level Pressure  
Sea Level Pressure 30.04 in    
Wind  
Wind Speed 5 mph (SSW)    
Max Wind Speed 16 mph    
Max Gust Speed 29 mph    
Visibility 10 miles    
Events      
T = Trace of Precipitation, MM = Missing Value Source: NWS Daily Summary

Daily Weather History Graph

Daily Weather History Graph

Search for Another Location

Airport or City:

Trip Planner

Search our weather history database for the weather conditions in past years. The results will help you decide how hot, cold, wet, or windy it might be!

Date:

Astronomy

Oct. 09, 2012 Rise Set
Actual Time 7:49 AM EDT 7:14 PM EDT
Civil Twilight 7:22 AM EDT 7:41 PM EDT
Nautical Twilight 6:51 AM EDT 8:12 PM EDT
Astronomical Twilight 6:20 AM EDT 8:43 PM EDT
Moon 1:26 AM EDT (10/9) 3:40 PM EDT (10/9)
Length of Visible Light 12h 18m
Length of Day
11h 24m
Last Quarter, 37% of the Moon is Illuminated
Oct 9
Last Quarter
Oct 15
New
Oct 21
First Quarter
Oct 29
Full
Nov 6
Last Quarter

Hourly Weather History & Observations

Time (EDT) Temp. Windchill Dew Point Humidity Pressure Visibility Wind Dir Wind Speed Gust Speed Precip Events Conditions
12:53 AM 37.9 °F - 35.1 °F 89% 30.14 in 10.0 mi Calm Calm - N/A   Clear
1:53 AM 37.0 °F - 33.1 °F 86% 30.14 in 10.0 mi Calm Calm - N/A   Clear
2:53 AM 36.0 °F - 34.0 °F 93% 30.13 in 10.0 mi Calm Calm - N/A   Clear
4:53 AM 36.0 °F - 33.1 °F 89% 30.12 in 10.0 mi Calm Calm - N/A   Clear
5:53 AM 34.0 °F - 33.1 °F 96% 30.13 in 10.0 mi Calm Calm - N/A   Clear
6:53 AM 36.0 °F 33.3 °F 33.1 °F 89% 30.12 in 10.0 mi SE 3.5 mph - N/A   Clear
8:53 AM 39.0 °F - 34.0 °F 82% 30.13 in 10.0 mi Calm Calm - N/A   Clear
9:53 AM 45.0 °F 42.6 °F 35.1 °F 68% 30.14 in 10.0 mi South 4.6 mph - N/A   Clear
10:53 AM - - - N/A% 30.11 in - North - - N/A   Unknown
11:53 AM - - - N/A% 30.09 in - North - - N/A   Unknown
12:53 PM - - - N/A% 30.06 in - North - - N/A   Unknown
1:53 PM 59.0 °F - 37.0 °F 44% 30.04 in 10.0 mi SSW 13.8 mph 20.7 mph N/A   Clear
2:53 PM 60.1 °F - 37.0 °F 42% 30.01 in 10.0 mi SSW 12.7 mph 21.9 mph N/A   Clear
3:53 PM 61.0 °F - 37.0 °F 41% 29.98 in 10.0 mi South 11.5 mph 20.7 mph N/A   Clear
4:53 PM 61.0 °F - 37.0 °F 41% 29.96 in 10.0 mi South 11.5 mph - N/A   Clear
5:53 PM 60.1 °F - 37.0 °F 42% 29.95 in 10.0 mi SSW 10.4 mph 18.4 mph N/A   Clear
6:53 PM 57.0 °F - 37.9 °F 49% 29.96 in 10.0 mi Variable 5.8 mph 27.6 mph N/A   Clear
7:53 PM 55.0 °F - 37.9 °F 53% 29.96 in 10.0 mi SSW 4.6 mph - N/A   Clear
8:53 PM 52.0 °F - 39.0 °F 61% 29.96 in 10.0 mi Calm Calm - N/A   Clear
9:53 PM 51.1 °F - 39.0 °F 63% 29.95 in 10.0 mi Calm Calm - N/A   Clear
10:53 PM 50.0 °F - 39.0 °F 66% 29.94 in 10.0 mi SSW 4.6 mph - N/A   Clear
11:53 PM 48.0 °F - 39.9 °F 74% 29.92 in 10.0 mi South 3.5 mph - N/A   Clear